Location: Asheville, NC
(35.6000°N, 82.5500°W)
Time: 14:43:45
(UTC-05:00)

Vanguard 2 - Visible Passes

Search period start: 12 December 2017 00:00
Search period end: 22 December 2017 00:00
Orbit: 553 x 2939 km, 32.9° (Epoch: 11 December)

Date Brightness Start Highest point End Pass type
(mag) Time Alt. Az. Time Alt. Az. Time Alt. Az.
12 Dec 7.5 17:56:19 10° W 18:01:41 63° S 18:05:42 10° E visible
12 Dec 9.4 20:05:45 10° W 20:07:14 20° WSW 20:07:14 20° WSW visible
13 Dec 7.4 18:14:31 10° W 18:19:45 63° S 18:23:05 15° ESE visible
13 Dec 10.0 20:24:02 10° W 20:24:31 12° WSW 20:24:31 12° WSW visible
14 Dec 7.5 18:32:45 10° W 18:37:48 57° S 18:40:23 21° ESE visible
15 Dec 7.8 18:50:59 10° W 18:55:48 46° SSW 18:57:45 26° SE visible
16 Dec 8.3 19:09:18 10° W 19:13:45 35° SSW 19:15:09 27° SSE visible
17 Dec 8.7 19:27:43 10° W 19:31:38 25° SSW 19:32:37 23° S visible
18 Dec 9.3 19:46:28 10° WSW 19:49:26 17° SSW 19:50:08 16° SSW visible
19 Dec 8.5 17:53:36 10° W 17:59:50 47° SSW 18:04:07 10° SE visible
19 Dec 9.9 20:06:39 10° SW 20:07:10 10° SW 20:07:41 10° SSW visible
20 Dec 9.0 18:12:01 10° W 18:17:45 36° SSW 18:21:48 10° SE visible
21 Dec 9.5 18:30:33 10° W 18:35:31 26° SSW 18:39:14 10° SSE visible
